Weather History for Washington, MO

Change the Weather History Date:

Thursday, August 21, 2014

  Actual Average (KSTL) Record (KSTL)
Temperature  
Mean Temperature 80 °F 78 °F  
Max Temperature 93 °F 88 °F 104 °F (2003)
Min Temperature 68 °F 69 °F 50 °F (1950)
Degree Days  
Heating Degree Days 0 0  
Month to date heating degree days 0  
Since 1 June heating degree days 5  
Since 1 July heating degree days 0  
Cooling Degree Days 16 13  
Month to date cooling degree days 301  
Year to date cooling degree days 1276  
Since 1 June cooling degree days 1102  
Growing Degree Days 30 (Base 50)    
Moisture  
Dew Point 72 °F    
Average Humidity 77    
Maximum Humidity 100    
Minimum Humidity 49    
Precipitation  
Precipitation 0.00 in 0.09 in 2.07 in (1944)
Month to date precipitation 2.08  
Year to date precipitation 26.84  
Snow  
Snow 0.00 in 0.00 in 0.00 in (2013)
Month to date snowfall 0.0  
Since 1 June snowfall 0.0  
Since 1 July snowfall 0.0  
Snow Depth -    
Sea Level Pressure  
Sea Level Pressure 29.95 in    
Wind  
Wind Speed 2 mph (SSW)    
Max Wind Speed 12 mph    
Max Gust Speed 17 mph    
Visibility 8 miles    
Events Fog    
T = Trace of Precipitation, MM = Missing Value Source: NWS Daily Summary

Daily Weather History Graph

Daily Weather History Graph

Search for Another Location

Airport:

Trip Planner

Search our weather history database for the weather conditions in past years. The results will help you decide how hot, cold, wet, or windy it might be!

Date:

Astronomy

Aug. 21, 2014 Rise Set
Actual Time 6:23 AM CDT 7:50 PM CDT
Civil Twilight 5:55 AM CDT 8:17 PM CDT
Nautical Twilight 5:22 AM CDT 8:51 PM CDT
Astronomical Twilight 4:46 AM CDT 9:26 PM CDT
Moon 2:55 AM CDT (8/21) 5:17 PM CDT (8/21)
Length of Visible Light 14h 22m
Length of Day
13h 26m
Waning Crescent, 13% of the Moon is Illuminated
Aug 21
Waning Crescent
Aug 25
New
Sep 2
First Quarter
Sep 8
Full
Sep 15
Last Quarter

Hourly Weather History & Observations

Time (CDT) Temp. Heat Index Dew Point Humidity Pressure Visibility Wind Dir Wind Speed Gust Speed Precip Events Conditions
12:15 AM 73.4 °F - 73.4 °F 100% 29.95 in 3.0 mi Calm Calm - N/A   Partly Cloudy
12:35 AM 73.4 °F - 73.4 °F 100% 29.96 in 0.8 mi Calm Calm - N/A   Mostly Cloudy
12:55 AM 73.4 °F - 73.4 °F 100% 29.96 in 2.5 mi Calm Calm - N/A   Scattered Clouds
1:15 AM 71.6 °F - 71.6 °F 100% 29.96 in 4.0 mi SSE 3.5 mph - N/A   Partly Cloudy
1:35 AM 71.6 °F - 71.6 °F 100% 29.96 in 5.0 mi Calm Calm - N/A   Partly Cloudy
1:55 AM 71.6 °F - 71.6 °F 100% 29.95 in 5.0 mi Calm Calm - N/A   Partly Cloudy
2:15 AM 71.6 °F - 71.6 °F 100% 29.95 in 4.0 mi Calm Calm - N/A   Clear
2:35 AM 71.6 °F - 71.6 °F 100% 29.96 in 4.0 mi Calm Calm - N/A   Clear
2:55 AM 71.6 °F - 71.6 °F 100% 29.96 in 4.0 mi Calm Calm - N/A   Clear
3:15 AM 71.6 °F - 71.6 °F 100% 29.96 in 2.0 mi Calm Calm - N/A   Clear
3:35 AM 73.4 °F - 71.6 °F 94% 29.97 in 9.0 mi Calm Calm - N/A   Clear
3:55 AM 69.8 °F - 69.8 °F 100% 29.97 in 3.0 mi Calm Calm - N/A   Clear
4:15 AM 69.8 °F - 69.8 °F 100% 29.97 in 1.0 mi Calm Calm - N/A   Clear
4:35 AM 68.0 °F - 68.0 °F 100% 29.96 in 0.2 mi Calm Calm - N/A Fog Fog
4:55 AM 69.8 °F - 68.0 °F 94% 29.97 in 4.0 mi Calm Calm - N/A   Clear
5:15 AM 69.8 °F - 68.0 °F 94% 29.96 in 10.0 mi Calm Calm - N/A   Clear
5:35 AM 68.0 °F - 68.0 °F 100% 29.96 in 5.0 mi Calm Calm - N/A   Clear
6:35 AM 68.0 °F - 66.2 °F 94% 29.97 in 3.0 mi Calm Calm - N/A   Clear
6:55 AM 68.0 °F - 66.2 °F 94% 29.97 in 9.0 mi Calm Calm - N/A   Clear
7:15 AM 69.8 °F - 68.0 °F 94% 29.97 in 9.0 mi SE 3.5 mph - N/A   Clear
7:35 AM 71.6 °F - 68.0 °F 88% 29.98 in 8.0 mi SE 3.5 mph - N/A   Clear
7:55 AM 73.4 °F - 68.0 °F 83% 29.98 in 9.0 mi ESE 5.8 mph - N/A   Clear
8:15 AM 75.2 °F - 69.8 °F 83% 29.99 in 9.0 mi ESE 4.6 mph - N/A   Clear
8:35 AM 77.0 °F - 71.6 °F 83% 29.99 in 9.0 mi SE 3.5 mph - N/A   Clear
8:55 AM 77.0 °F - 71.6 °F 83% 30.00 in 9.0 mi Calm Calm - N/A   Clear
9:15 AM 80.6 °F 84.6 °F 71.6 °F 74% 30.00 in 9.0 mi SSW 6.9 mph - N/A   Clear
9:35 AM 80.6 °F 84.6 °F 71.6 °F 74% 30.00 in 9.0 mi SSW 6.9 mph - N/A   Clear
9:55 AM 82.4 °F 88.2 °F 73.4 °F 74% 30.00 in 9.0 mi SW 4.6 mph - N/A   Clear
10:15 AM 84.2 °F 90.9 °F 73.4 °F 70% 30.00 in 9.0 mi WSW 5.8 mph - N/A   Clear
10:35 AM 84.2 °F 90.9 °F 73.4 °F 70% 30.00 in 9.0 mi SW 6.9 mph - N/A   Clear
10:55 AM 86.0 °F 93.4 °F 73.4 °F 66% 30.00 in 9.0 mi SW 5.8 mph - N/A   Clear
11:15 AM 86.0 °F 93.4 °F 73.4 °F 66% 30.00 in 10.0 mi WSW 6.9 mph - N/A   Clear
11:35 AM 87.8 °F 95.6 °F 73.4 °F 62% 29.99 in 9.0 mi SSW 8.1 mph - N/A   Clear
12:15 PM 89.6 °F 98.2 °F 73.4 °F 59% 29.99 in 10.0 mi SW 10.4 mph - N/A   Clear
12:35 PM 89.6 °F 98.2 °F 73.4 °F 59% 29.98 in 9.0 mi West 4.6 mph - N/A   Clear
12:55 PM 89.6 °F 98.2 °F 73.4 °F 59% 29.98 in 10.0 mi WSW 5.8 mph - N/A   Clear
1:15 PM 91.4 °F 102.5 °F 75.2 °F 59% 29.97 in 9.0 mi SSW 5.8 mph - N/A   Clear
1:35 PM 91.4 °F 100.1 °F 73.4 °F 55% 29.97 in 9.0 mi SSW 10.4 mph - N/A   Clear
1:55 PM 91.4 °F 102.5 °F 75.2 °F 59% 29.96 in 10.0 mi SW 9.2 mph - N/A   Clear
2:15 PM 91.4 °F 100.1 °F 73.4 °F 55% 29.95 in 10.0 mi SW 8.1 mph - N/A   Clear
2:35 PM 93.2 °F 102.4 °F 73.4 °F 52% 29.95 in 10.0 mi SW 8.1 mph - N/A   Clear
2:55 PM 93.2 °F 102.4 °F 73.4 °F 52% 29.94 in 10.0 mi West 8.1 mph - N/A   Clear
3:15 PM 93.2 °F 102.4 °F 73.4 °F 52% 29.93 in 10.0 mi SW 5.8 mph - N/A   Clear
3:35 PM 93.2 °F 100.5 °F 71.6 °F 49% 29.93 in 10.0 mi SW 6.9 mph - N/A   Clear
3:55 PM 93.2 °F 100.5 °F 71.6 °F 49% 29.92 in 10.0 mi SW 11.5 mph 17.3 mph N/A   Clear
4:35 PM 93.2 °F 102.4 °F 73.4 °F 52% 29.92 in 10.0 mi SSW 4.6 mph - N/A   Clear
4:55 PM 93.2 °F 102.4 °F 73.4 °F 52% 29.91 in 10.0 mi SSW 5.8 mph - N/A   Clear
5:15 PM 93.2 °F 102.4 °F 73.4 °F 52% 29.90 in 9.0 mi South 6.9 mph - N/A   Clear
5:35 PM 93.2 °F 102.4 °F 73.4 °F 52% 29.91 in 10.0 mi South 6.9 mph - N/A   Clear
5:55 PM 93.2 °F 105.0 °F 75.2 °F 56% 29.90 in 10.0 mi South 5.8 mph - N/A   Clear
6:55 PM 89.6 °F 99.8 °F 75.2 °F 62% 29.89 in 10.0 mi Calm Calm - N/A   Clear
7:15 PM 87.8 °F 97.6 °F 75.2 °F 66% 29.89 in 10.0 mi ESE 3.5 mph - N/A   Clear
7:55 PM 84.2 °F 92.3 °F 75.2 °F 74% 29.89 in 9.0 mi Calm Calm - N/A   Clear
8:15 PM 82.4 °F 89.5 °F 75.2 °F 79% 29.89 in 10.0 mi Calm Calm - N/A   Clear
8:35 PM 80.6 °F 86.2 °F 75.2 °F 84% 29.90 in 10.0 mi Calm Calm - N/A   Clear
8:55 PM 80.6 °F 86.2 °F 75.2 °F 84% 29.90 in 10.0 mi Calm Calm - N/A   Clear
9:15 PM 78.8 °F - 77.0 °F 94% 29.92 in 10.0 mi Calm Calm - N/A   Clear
9:35 PM 78.8 °F - 75.2 °F 89% 29.92 in 10.0 mi Calm Calm - N/A   Clear
10:35 PM 80.6 °F 86.2 °F 75.2 °F 84% 29.94 in 10.0 mi SE 5.8 mph - N/A   Overcast
11:15 PM 82.4 °F 88.2 °F 73.4 °F 74% 29.95 in 10.0 mi SE 4.6 mph - N/A   Overcast
11:35 PM 82.4 °F 88.2 °F 73.4 °F 74% 29.95 in 10.0 mi SSE 3.5 mph - N/A   Mostly Cloudy
11:55 PM 80.6 °F 84.6 °F 71.6 °F 74% 29.95 in 10.0 mi SE 4.6 mph - N/A   Partly Cloudy